Orbital Elements at Epoch 2459200.5 (2020-Dec-17.0) TDB
Reference: JPL 23 (heliocentric ecliptic J2000)
Element | Value | Uncertainty (1-sigma) | Units |
e | .3244801043446403 | 6.0762e-08 | |
a | 2.723975007337469 | 1.0462e-08 | au |
q | 1.840099312724415 | 1.6661e-07 | au |
i | 8.177055845822036 | 5.8926e-06 | deg |
node | 223.2501028830243 | 3.5593e-05 | deg |
peri | 151.4206303358214 | 3.5923e-05 | deg |
M | 249.6648634466456 | 6.3637e-06 | deg |
tp | 2459703.785526133503 (2022-May-04.28552613) | 3.0818e-05 | TDB |
period | 1642.113247582261 4.50 | 9.4601e-06 2.59e-08 | d yr |
n | .2192297032680542 | 1.263e-09 | deg/d |
Q | 3.607850701950523 | 1.3856e-08 | au |
|
| | Orbit Determination Parameters
Additional Information
|